AirNav   Air Wisconsin Airman Trainee
 
 1671 users online  

KNRS Imperial Beach Naval Outlying Field (Ream Field)
Imperial Beach, California, USA

GOING TO IMPERIAL BEACH?


FAA INFORMATION EFFECTIVE 25 APRIL 2019

Location

FAA Identifier: NRS
Lat/Long: 32-33-58.1638N / 117-06-48.6837W
32-33.969397N / 117-06.811395W
32.5661566 / -117.1135233
(estimated)
Elevation: 23.6 ft. / 7.2 m (surveyed)
Variation: 11E (2020)
From city: 1 mile S of IMPERIAL BEACH, CA
Time zone: UTC -7 (UTC -8 during Standard Time)
Zip code: 91932

Airport Operations

Airport use: Private use. Permission required prior to landing
Activation date: 02/1944
Control tower: yes
ARTCC: LOS ANGELES CENTER
FSS: SAN DIEGO FLIGHT SERVICE STATION
FSS-SAN DIEGO SAN-NOTAM NRS
NOTAMs facility: SAN (NOTAM-D service available)
Attendance: 
OPR 1600-0630Z MON-THU (1500-0600Z DT) AND 1600-0200Z++ FRI. CLSD FR 0200Z++ DAY PRIOR TIL 1600Z++ DAY FLW GOVT HOL; EXC PRE-COORD FLT OF OPR NECESSITY. CTC NOLF ATC DSN 577-9414/9415 FOR OPR INQUIRIES.
Segmented circle: no
Lights: AVBL ONLY DURING HRS OF OPERATION.
Beacon: white-white-green (lighted military airport)
Operates sunset to sunrise.

Airport Communications

ATIS: 276.2
WX ASOS: PHONE 619-437-9890
IMPERIAL BEACH GROUND: 285.575 [1600-0630Z MON-THU (1500-0600Z DT) AND 1600-0200Z++ FRI. CLSD FR 0200Z++ DAY PRIOR TIL 1600Z++ DAY FLW GOVT HOL.]
IMPERIAL BEACH TOWER: 120.65 239.25 [1600-0630Z MON-THU (1500-0600Z DT) AND 1600-0200Z++ FRI. CLSD FR 0200Z++ DAY PRIOR TIL 1600Z++ DAY FLW GOVT HOL.]
SOCAL APPROACH: 125.15
SOCAL DEPARTURE: 125.15
EMERG: 243.0
RADAR: 318.8
WX ASOS at SDM (7 nm E): 132.35 (619-661-8297)
WX ASOS at SAN (11 nm N): PHONE 619-296-8934
WX ASOS at MYF (15 nm N): 126.9 (858-576-4337)
WX AWOS-3P at SEE (17 nm NE): 125.45 (619-449-1228)
  • ATCT/GCA/ATIS OPR PUBLISHED HRS EXC PRE-COORD FLT OF OPR NECESSITY.
  • FOR CLNC DEL WHEN ATCT CLSD CALL SOCAL APCH (800) 448-3724.
  • ILS/RADAR - RADAR - SEE TERMINAL FLIP FOR RADAR MINIMA.

Nearby radio navigation aids

VOR radial/distance  VOR name  Freq  Var
PGYr235/7.3POGGI VORTAC109.8014E
TIJr267/8.2TIJUANA VOR/DME116.5014E
MZBr141/14.1MISSION BAY VORTAC117.8015E

Airport Services

Runway Information

Runway 8/26

Dimensions: 2240 x 151 ft. / 683 x 46 m
Surface: concrete
Weight bearing capacity: 
PCN 6 /R/C/W/T
RUNWAY 8  RUNWAY 26
Latitude: 32-34.018072N32-33.921433N
Longitude: 117-06.827898W117-06.406738W
Elevation: 23.5 ft.21.2 ft.
Traffic pattern: leftleft
Touchdown point: yes, no lightsyes, no lights

Runway 9/27

Dimensions: 4997 x 336 ft. / 1523 x 102 m
Surface: PEM
Weight bearing capacity: 
PCN 8 /F/A/W/T
Runway edge lights: high intensity
RUNWAY 9  RUNWAY 27
Latitude: 32-34.076683N32-33.861790N
Longitude: 117-07.368155W117-06.428677W
Elevation: 8.2 ft.19.8 ft.
Traffic pattern: leftleft
Touchdown point: yes, no lightsyes, no lights

Airport Ownership and Management from official FAA records

Ownership: U.S. Navy
Owner: US NAVY
OCEANOGRAPHIC OFC - CODE 3142
WASHINGTON, DC 20373

Additional Remarks

RSTD - OFFL BUS ONLY - PPR F/W AND NON-TENANT ACFT, CTC NASNI ODO DSN 735-8233/8234, C619-545-8233/8234. NORTH ISLAND TENANT ACFT AND COAST GUARD HAVE PRIORITY FOR LCL PAT OPR.
CAUTION: EXTV COPTER TRNG.
MISC: RWY 08-26 AVBL FOR DAY AND NGT COPTER USE ONLY (NGT AND SVFR USE AT PILOTS OWN RISK).
FUEL: J5 (AVAILABLE 1100-2100 MON-THU; 1000-1800 FRI).

Instrument Procedures

NOTE: All procedures below are presented as PDF files. If you need a reader for these files, you should download the free Adobe Reader.

NOT FOR NAVIGATION. Please procure official charts for flight.
FAA instrument procedures published for use from 25 April 2019 at 0901Z to 23 May 2019 at 0900Z.

 
IAPs - Instrument Approach Procedures
COPTER TACAN RWY 27   download (94KB)
NOTE: Special Take-Off Minimums/Departure Procedures apply   download (174KB)

Other nearby airports with instrument procedures:

KSDM - Brown Field Municipal Airport (7 nm E)
KNZY - North Island Naval Air Station (Halsey Field) (9 nm NW)
KSAN - San Diego International Airport (11 nm N)
KMYF - Montgomery-Gibbs Executive Airport (15 nm N)
KSEE - Gillespie Field Airport (17 nm NE)
KNKX - Miramar MCAS (Joe Foss Field) Airport (18 nm N)
 
Loc | Ops | Rwys | IFR | FBO | Links
Com | Nav | Svcs | Stats | Notes
Area around KNRS (Imperial Beach Naval Outlying Field (Ream Field))
 
Road maps at: MapQuest Bing Google
 
Aerial photo
WARNING: Photo may not be current or correct
Aerial photo of KNRS (Imperial Beach Naval Outlying Field (Ream Field))
Photo taken 02-Feb-2016
looking south.

Do you have a better or more recent aerial photo of Imperial Beach Naval Outlying Field (Ream Field) that you would like to share? If so, please send us your photo.

 
Sectional chart

 
Airport distance calculator
Flying to Imperial Beach Naval Outlying Field (Ream Field)? Find the distance to fly.

From to KNRS

Sunrise and sunset
Times for 21-May-2019
 Local
(UTC-7)
 Zulu
(UTC)
Morning civil twilight05:2012:20
Sunrise05:4712:47
Sunset19:4302:43
Evening civil twilight20:1003:10

Current date and time
Zulu (UTC)  21-May-2019 19:08:17
Local (UTC-7)  21-May-2019 12:08:17
 
METAR
KNRS 211856Z 26011KT 10SM FEW022 BKN038 BKN250 18/10 A2998 RMK AO2 SLP153 T01780100 $
KSDM 
6nm E 
211853Z 25013KT 10SM SCT026 BKN035 17/09 A2997 RMK AO2 SLP146 T01720089
MMTJ 
8nm E 
211852Z 25013KT 8SM BKN030 BKN200 17/09 A3000 RMK 8/408 HZY
KNZY 
10nm NW 
211852Z 26011KT 10SM SCT025 BKN033 BKN220 18/09 A2996 RMK AO2 SLP146 T01780089
KSAN 
11nm N 
211851Z 27010G18KT 230V300 10SM FEW025 SCT030 BKN036 18/08 A2998 RMK AO2 SLP153 T01780083
KMYF 
15nm N 
211853Z 25015G22KT 10SM BKN026 BKN036 17/08 A2996 RMK AO2 SLP143 T01670083
KSEE 
17nm NE 
211850Z 23013KT 10SM BKN029 17/08 A2996
KNKX 
18nm N 
211855Z 26012G18KT 10SM BKN024 BKN030 OVC036 18/09 A2995 RMK AO2 SLP139 T01830089 $
TAF
MMTJ 
8nm E 
211705Z 2118/2224 25012KT 6SM HZ OVC020 TX17/2121Z TN12/2212Z TEMPO 2118/2122 5SM RA FM220300 00000KT P6SM OVC015 FM220600 20010KT 5SM RA OVC015 TEMPO 2210/2214 2SM RA OVC010 FM221600 20010KT P6SM BKN025
KNZY 
10nm NW 
2115/2215 25011KT 9999 VCSH SCT025 BKN035 BKN055 520009 520909 521809 522709 523605 QNH2991INS TEMPO 2116/2119 29012G20KT 9000 -SHRA SCT015 BKN025 BKN040 FM211800 27013KT 9999 FEW025 SCT038 BKN050 520009 520909 521809 522709 523605 QNH2987INS FM212300 27015G25KT 9999 SCT027 BKN040 520009 520909 521809 522709 523605 QNH2980INS TEMPO 2200/2206 28020G30KT 9000 -SHRA SCT015 BKN025 BKN050 T18/2122Z T14/2213Z FS30103 FM220600 29015G25KT 9999 VCSH SCT025 BKN035 BKN055 520009 520909 521809 522709 523605
KSAN 
11nm N 
211720Z 2118/2224 25012KT P6SM SCT025 BKN030 FM212200 26013G20KT P6SM VCSH BKN025 BKN030 FM220500 26017G28KT P6SM OVC025
KNKX 
18nm N 
2115/2215 23008KT 9999 FEW015 OVC020 QNH2990INS TEMPO 2115/2121 25013G20KT 8000 -RA BR OVC035 FM212130 22013G20KT 9999 BKN025 QNH2980INS BECMG 2203/2205 23014G22KT 4800 RA BR BKN020 QNH2973INS T17/2121Z T12/2210Z
NOTAMs
Click for the latest NOTAMs
NOTAMs are issued by the DoD/FAA and will open in a separate window not controlled by AirNav.

 

 
 

Would you like to see your business listed on this page?

 If your business provides an interesting product or service to pilots, flight crews, aircraft, or users of the Imperial Beach Naval Outlying Field (Ream Field), you should consider listing it here.  To start the listing process, click on the button below
 
Add a business
 

Other Pages about Imperial Beach Naval Outlying Field (Ream Field)

Update a link
 
Copyright © AirNav, LLC. All rights reserved. Privacy Policy  Contact